TimeCST,TemperatureF,Dew PointF,Humidity,Sea Level PressureIn,VisibilityMPH,Wind Direction,Wind SpeedMPH,Gust SpeedMPH,PrecipitationIn,Events,Conditions,WindDirDegrees,DateUTC
12:54 AM,41.0,28.9,62,30.21,10.0,NW,11.5,20.7,N/A,,Clear,320,2013-01-20 06:54:00
1:54 AM,37.9,28.0,68,30.24,10.0,NW,12.7,-,N/A,,Clear,320,2013-01-20 07:54:00
2:54 AM,37.0,21.0,52,30.26,10.0,NW,15.0,20.7,N/A,,Clear,320,2013-01-20 08:54:00
3:54 AM,33.1,19.9,59,30.27,10.0,NNW,11.5,-,N/A,,Clear,340,2013-01-20 09:54:00
4:54 AM,30.0,10.9,45,30.28,10.0,North,12.7,-,N/A,,Clear,350,2013-01-20 10:54:00
5:54 AM,27.0,15.1,61,30.31,10.0,North,10.4,-,N/A,,Clear,350,2013-01-20 11:54:00
6:54 AM,26.1,17.1,69,30.33,10.0,NNW,5.8,-,N/A,,Clear,340,2013-01-20 12:54:00
7:54 AM,27.0,19.9,75,30.34,10.0,North,10.4,-,N/A,,Clear,10,2013-01-20 13:54:00
8:54 AM,28.0,18.0,66,30.34,10.0,NNE,9.2,-,N/A,,Clear,20,2013-01-20 14:54:00
9:54 AM,30.0,14.0,51,30.36,10.0,North,9.2,-,N/A,,Clear,10,2013-01-20 15:54:00
10:54 AM,32.0,15.1,50,30.33,10.0,NE,8.1,-,N/A,,Clear,50,2013-01-20 16:54:00
11:54 AM,33.1,10.0,38,30.33,10.0,North,5.8,-,N/A,,Clear,360,2013-01-20 17:54:00
12:54 PM,34.0,12.9,42,30.31,10.0,North,6.9,-,N/A,,Clear,360,2013-01-20 18:54:00
1:54 PM,33.1,12.9,43,30.29,10.0,North,8.1,-,N/A,,Clear,10,2013-01-20 19:54:00
2:54 PM,32.0,12.9,45,30.31,10.0,NNE,10.4,-,N/A,,Clear,30,2013-01-20 20:54:00
3:54 PM,30.0,12.9,49,30.32,10.0,North,11.5,-,N/A,,Mostly Cloudy,10,2013-01-20 21:54:00
4:54 PM,28.9,12.9,51,30.32,10.0,NNE,6.9,-,N/A,,Clear,20,2013-01-20 22:54:00
5:54 PM,28.0,12.9,53,30.32,10.0,NNE,9.2,-,N/A,,Clear,20,2013-01-20 23:54:00
6:54 PM,27.0,14.0,58,30.34,10.0,North,10.4,-,N/A,,Mostly Cloudy,10,2013-01-21 00:54:00
7:54 PM,26.1,12.9,58,30.34,10.0,North,10.4,-,N/A,,Overcast,360,2013-01-21 01:54:00
8:54 PM,26.1,12.0,55,30.35,10.0,North,10.4,-,N/A,,Overcast,360,2013-01-21 02:54:00
9:54 PM,25.0,12.9,60,30.36,10.0,NNW,8.1,-,N/A,,Overcast,340,2013-01-21 03:54:00
10:54 PM,23.0,12.0,63,30.36,10.0,NNW,8.1,-,N/A,,Clear,340,2013-01-21 04:54:00
11:54 PM,23.0,8.1,53,30.36,10.0,NNW,11.5,-,N/A,,Clear,330,2013-01-21 05:54:00